Tucson, AZ

11:49 AM MST on October 23, 2019 (GMT -0700)
Tucson International

Weather History for KTUS - August, 2019

Change the Weather History Date:

Thursday, August 8, 2019

  Actual Average Record
Temperature  
Mean Temperature 90 °F 85 °F  
Max Temperature 100 °F 97 °F 108 °F (2012)
Min Temperature 79 °F 74 °F 61 °F (1895)
Degree Days  
Heating Degree Days 0 0  
Month to date heating degree days 0 0  
Since 1 June heating degree days 0 0  
Since 1 July heating degree days 0 0  
Cooling Degree Days 25 20  
Month to date cooling degree days 203 166  
Year to date cooling degree days 1980 1945  
Since 1 June cooling degree days 1608 1443  
Growing Degree Days 40 (Base 50)    
Moisture  
Dew Point 59 °F    
Average Humidity 37    
Maximum Humidity 58    
Minimum Humidity 19    
Precipitation  
Precipitation 0.00 in 0.08 in 1.40 in (1895)
Month to date precipitation 0.24 0.66  
Year to date precipitation 6.34 6.18  
Sea Level Pressure  
Sea Level Pressure 29.81 in    
Wind  
Wind Speed 7 mph (SSW)    
Max Wind Speed 23 mph    
Max Gust Speed 33 mph    
Visibility 10 miles    
Events Thunderstorm    
T = Trace of Precipitation, MM = Missing Value Source: NWS Daily Summary

Daily Weather History Graph

Daily Weather History Graph

Search for Another Location

Airport or City:

Astronomy

Aug. 08, 2019 Rise Set
Actual Time 5:43 AM MST 7:14 PM MST
Civil Twilight 5:17 AM MST 7:41 PM MST
Nautical Twilight 4:45 AM MST 8:12 PM MST
Astronomical Twilight 4:12 AM MST 8:45 PM MST
Moon 1:54 PM MST (8/8) 12:05 AM MST (8/8)
Length of Visible Light 14h 23m
Length of Day
13h 31m
First Quarter, 61% of the Moon is Illuminated
Aug 8
First Quarter
Aug 15
Full
Aug 23
Last Quarter
Aug 30
New
Sep 5
First Quarter

Hourly Weather History & Observations

Time (MST) Temp. Heat Index Dew Point Humidity Pressure Visibility Wind Dir Wind Speed Gust Speed Precip Events Conditions
12:53 AM 82.9 °F 83.3 °F 61.0 °F 47% 29.81 in 10.0 mi West 8.1 mph - N/A   Clear
1:53 AM 82.0 °F 82.7 °F 61.0 °F 49% 29.81 in 10.0 mi West 5.8 mph - N/A   Clear
2:53 AM 82.0 °F 82.7 °F 61.0 °F 49% 29.81 in 10.0 mi East 3.5 mph - N/A   Clear
3:53 AM 81.0 °F 82.2 °F 63.0 °F 54% 29.81 in 10.0 mi South 4.6 mph - N/A   Clear
4:53 AM 80.1 °F 81.5 °F 63.0 °F 56% 29.81 in 10.0 mi South 8.1 mph - N/A   Clear
5:53 AM 79.0 °F - 63.0 °F 58% 29.83 in 10.0 mi ESE 4.6 mph - N/A   Clear
6:53 AM 82.0 °F 83.0 °F 62.1 °F 51% 29.84 in 10.0 mi SSE 8.1 mph - N/A   Clear
7:53 AM 84.9 °F 85.4 °F 62.1 °F 46% 29.85 in 10.0 mi South 5.8 mph - N/A   Clear
8:53 AM 88.0 °F 87.6 °F 60.1 °F 39% 29.85 in 10.0 mi Calm Calm - N/A   Clear
9:53 AM 91.9 °F 91.2 °F 59.0 °F 33% 29.85 in 10.0 mi Variable 4.6 mph - N/A   Clear
10:53 AM 96.1 °F 95.2 °F 57.9 °F 28% 29.83 in 10.0 mi Calm Calm - N/A   Clear
11:53 AM 98.1 °F 97.2 °F 57.9 °F 26% 29.82 in 10.0 mi Calm Calm - N/A   Clear
12:53 PM - - 46.4 °F N/A% 29.79 in - North - - N/A   Unknown
1:13 PM 99.0 °F 98.1 °F 57.0 °F 25% 29.96 in 10.0 mi West 12.7 mph 20.7 mph N/A Thunderstorm Mostly Cloudy
1:28 PM 91.9 °F 91.5 °F 60.1 °F 34% 29.96 in 10.0 mi West 17.3 mph 29.9 mph N/A   Scattered Clouds
1:53 PM 96.1 °F 95.2 °F 57.9 °F 28% 29.79 in 10.0 mi West 12.7 mph - N/A   Clear
2:53 PM 95.0 °F 94.4 °F 59.0 °F 30% 29.77 in 10.0 mi West 13.8 mph - N/A   Clear
3:53 PM 93.0 °F 92.0 °F 57.9 °F 31% 29.76 in 10.0 mi WSW 10.4 mph - N/A   Clear
4:53 PM 93.9 °F 92.6 °F 57.0 °F 29% 29.74 in 10.0 mi Variable 4.6 mph - N/A   Clear
5:53 PM 95.0 °F 93.7 °F 57.0 °F 28% 29.74 in 10.0 mi WSW 3.5 mph - N/A   Clear
6:53 PM 91.9 °F 91.2 °F 59.0 °F 33% 29.75 in 10.0 mi South 11.5 mph - N/A   Clear
7:53 PM 91.0 °F 90.2 °F 59.0 °F 34% 29.78 in 10.0 mi SSW 10.4 mph - N/A   Clear
8:53 PM 89.1 °F 88.2 °F 59.0 °F 36% 29.79 in 10.0 mi South 9.2 mph - N/A   Clear
9:53 PM 90.0 °F 88.8 °F 57.9 °F 34% 29.79 in 10.0 mi SSW 9.2 mph - N/A   Clear
10:53 PM 89.1 °F 88.0 °F 57.9 °F 35% 29.80 in 10.0 mi WSW 5.8 mph - N/A   Partly Cloudy
11:53 PM 84.9 °F 85.4 °F 62.1 °F 46% 29.80 in 10.0 mi South 12.7 mph - N/A   Clear